FGYGM LFPN-LFOB

Flight info

Callsign FGYGM
Flight time N/A
Altitude 7000
Route PACIQ
Aircraft PA34/L-SDFGRY/S

Departure

Time 2026-04-25 09:48
Airport Toussus-le-Noble Airport (LFPN)

Arrival

Time N/A
Airport Beauvais-Tillé airport (LFOB)
Time Latitude Longitude Altitude Speed Heading
2026-04-25 09:20 48.74692 2.10032 511 ft 0 kts 357°
2026-04-25 09:39 48.74699 2.10008 511 ft 6 kts 272°
2026-04-25 09:40 48.74760 2.09992 511 ft 8 kts 358°
2026-04-25 09:40 48.74822 2.09986 511 ft 10 kts 334°
2026-04-25 09:40 48.74829 2.09881 511 ft 11 kts 268°
2026-04-25 09:40 48.74854 2.09763 511 ft 12 kts 319°
2026-04-25 09:41 48.74914 2.09736 511 ft 0 kts
2026-04-25 09:46 48.74916 2.09736 511 ft 2 kts
2026-04-25 09:46 48.74948 2.09756 511 ft 9 kts 30°
2026-04-25 09:47 48.75016 2.09817 511 ft 14 kts 30°
2026-04-25 09:47 48.75107 2.09898 510 ft 9 kts 31°
2026-04-25 09:47 48.75141 2.09960 510 ft 0 kts 71°
2026-04-25 09:48 48.75180 2.10139 513 ft 56 kts 70°
2026-04-25 09:48 48.75355 2.10983 693 ft 98 kts 72°
2026-04-25 09:48 48.75520 2.12037 1163 ft 105 kts 73°
2026-04-25 09:48 48.75673 2.13133 1635 ft 107 kts 77°
2026-04-25 09:49 48.75823 2.14254 2004 ft 109 kts 73°
2026-04-25 09:49 48.75961 2.15033 2014 ft 120 kts 72°
2026-04-25 09:49 48.76200 2.16293 2012 ft 127 kts 71°
2026-04-25 09:49 48.76504 2.17575 2022 ft 130 kts 67°
2026-04-25 09:50 48.77119 2.18903 2434 ft 112 kts 27°
2026-04-25 09:50 48.77633 2.19089 2632 ft 115 kts
2026-04-25 09:50 48.78310 2.18469 2908 ft 126 kts 312°
2026-04-25 09:50 48.78938 2.17430 2991 ft 139 kts 320°
2026-04-25 09:51 48.79697 2.16464 2979 ft 143 kts 324°
2026-04-25 09:51 48.80552 2.15648 3005 ft 146 kts 330°
2026-04-25 09:51 48.81428 2.14806 3011 ft 152 kts 327°
2026-04-25 09:51 48.82250 2.13774 2942 ft 153 kts 316°
2026-04-25 09:52 48.82951 2.12562 2961 ft 151 kts 308°
2026-04-25 09:52 48.83516 2.11247 2992 ft 151 kts 301°
2026-04-25 09:52 48.84017 2.09825 3002 ft 152 kts 300°
2026-04-25 09:52 48.84560 2.08467 2998 ft 149 kts 304°
2026-04-25 09:53 48.85094 2.07132 3000 ft 147 kts 302°
2026-04-25 09:53 48.85609 2.05786 2994 ft 147 kts 301°
2026-04-25 09:53 48.86119 2.04434 2996 ft 147 kts 301°
2026-04-25 09:53 48.86626 2.03090 2998 ft 147 kts 301°
2026-04-25 09:54 48.87127 2.01763 2992 ft 145 kts 301°
2026-04-25 09:54 48.87630 2.00424 2996 ft 145 kts 301°
2026-04-25 09:54 48.88131 1.99093 2994 ft 145 kts 301°
2026-04-25 09:54 48.88638 1.97774 3009 ft 146 kts 302°
2026-04-25 09:55 48.89139 1.96408 3011 ft 149 kts 300°
2026-04-25 09:55 48.89659 1.95021 3014 ft 153 kts 301°
2026-04-25 09:55 48.90189 1.93618 3013 ft 151 kts 300°
2026-04-25 09:55 48.90713 1.92219 2995 ft 152 kts 300°
2026-04-25 09:56 48.91231 1.90827 3009 ft 151 kts 300°
2026-04-25 09:56 48.91753 1.89453 3008 ft 153 kts 302°
2026-04-25 09:56 48.92287 1.88039 3002 ft 153 kts 301°
2026-04-25 09:56 48.92799 1.86618 2998 ft 152 kts 299°
2026-04-25 09:57 48.93314 1.85233 2988 ft 147 kts 304°
2026-04-25 09:57 48.94175 1.84539 2978 ft 147 kts 356°
2026-04-25 09:57 48.95193 1.84520 2990 ft 147 kts 359°
2026-04-25 09:57 48.96208 1.84481 3003 ft 146 kts 360°
2026-04-25 09:58 48.97238 1.84442 2996 ft 149 kts 359°
2026-04-25 09:58 48.98263 1.84399 3000 ft 146 kts 359°
2026-04-25 09:58 48.99278 1.84361 3006 ft 146 kts 359°
2026-04-25 09:58 49.00286 1.84330 2998 ft 146 kts 359°
2026-04-25 09:59 49.01300 1.84285 2998 ft 145 kts 359°
2026-04-25 09:59 49.02313 1.84246 3014 ft 147 kts 360°
2026-04-25 09:59 49.03353 1.84203 2996 ft 148 kts 360°
2026-04-25 09:59 49.04375 1.84163 3006 ft 147 kts 360°
2026-04-25 10:00 49.05406 1.84121 2994 ft 147 kts 359°
2026-04-25 10:00 49.06421 1.84087 2997 ft 145 kts 360°
2026-04-25 10:00 49.07416 1.84039 3000 ft 144 kts
2026-04-25 10:00 49.08422 1.83954 3015 ft 146 kts 359°
2026-04-25 10:01 49.09454 1.83878 3013 ft 149 kts
2026-04-25 10:01 49.10500 1.83792 2988 ft 150 kts 359°
2026-04-25 10:01 49.11539 1.83728 2994 ft 148 kts 359°
2026-04-25 10:01 49.12559 1.83654 2991 ft 147 kts 359°
2026-04-25 10:02 49.13576 1.83571 2994 ft 146 kts 360°
2026-04-25 10:02 49.14572 1.83482 3009 ft 147 kts 359°
2026-04-25 10:02 49.15603 1.83412 2996 ft 147 kts
2026-04-25 10:02 49.16630 1.83349 3005 ft 148 kts 360°
2026-04-25 10:03 49.17649 1.83282 2995 ft 145 kts 359°
2026-04-25 10:03 49.18666 1.83213 2988 ft 148 kts
2026-04-25 10:03 49.19671 1.83139 3002 ft 142 kts
2026-04-25 10:03 49.20661 1.83062 2998 ft 142 kts
2026-04-25 10:04 49.21673 1.82994 3009 ft 147 kts 359°
2026-04-25 10:04 49.22707 1.82923 3010 ft 150 kts
2026-04-25 10:04 49.23734 1.82850 3001 ft 148 kts 359°
2026-04-25 10:04 49.24768 1.82775 2999 ft 148 kts 359°
2026-04-25 10:05 49.25787 1.82685 2993 ft 145 kts 360°
2026-04-25 10:05 49.26793 1.82606 2998 ft 144 kts
2026-04-25 10:05 49.27799 1.82530 3000 ft 145 kts 359°
2026-04-25 10:05 49.28812 1.82469 3005 ft 145 kts 359°
2026-04-25 10:06 49.29842 1.82394 2865 ft 151 kts
2026-04-25 10:06 49.30900 1.82306 2718 ft 154 kts 359°
2026-04-25 10:06 49.31991 1.82190 2586 ft 161 kts 360°
2026-04-25 10:06 49.33091 1.82093 2441 ft 161 kts 359°
2026-04-25 10:07 49.34206 1.81997 2286 ft 158 kts
2026-04-25 10:07 49.35297 1.81892 2130 ft 156 kts 358°
2026-04-25 10:07 49.36387 1.81795 2026 ft 158 kts
2026-04-25 10:07 49.37453 1.81680 2031 ft 150 kts 359°
2026-04-25 10:08 49.38492 1.81572 2016 ft 150 kts 359°
2026-04-25 10:08 49.39542 1.81481 2018 ft 151 kts
2026-04-25 10:08 49.40576 1.81386 2015 ft 146 kts 360°
2026-04-25 10:08 49.41591 1.81292 2029 ft 148 kts
2026-04-25 10:09 49.42604 1.81198 2040 ft 147 kts 360°
2026-04-25 10:09 49.43644 1.81098 2038 ft 151 kts 359°
2026-04-25 10:09 49.44689 1.81008 2040 ft 150 kts 358°
2026-04-25 10:09 49.45740 1.80920 2030 ft 150 kts 359°
2026-04-25 10:10 49.46774 1.80850 2024 ft 146 kts
2026-04-25 10:10 49.47784 1.80787 2023 ft 147 kts
2026-04-25 10:10 49.48807 1.80713 2025 ft 147 kts
2026-04-25 10:10 49.49839 1.80646 2027 ft 149 kts
2026-04-25 10:11 49.50879 1.80583 2029 ft 150 kts
2026-04-25 10:11 49.51874 1.80789 2015 ft 143 kts 31°
2026-04-25 10:11 49.52469 1.81945 2026 ft 139 kts 61°
2026-04-25 10:11 49.52956 1.83228 2022 ft 136 kts 63°
2026-04-25 10:12 49.53469 1.84480 2033 ft 141 kts 60°
2026-04-25 10:12 49.53970 1.85765 2047 ft 143 kts 60°
2026-04-25 10:12 49.54713 1.88564 2013 ft 139 kts 95°
2026-04-25 10:13 49.54424 1.89930 1991 ft 131 kts 110°
2026-04-25 10:13 49.53998 1.91148 2004 ft 128 kts 119°
2026-04-25 10:13 49.53540 1.92316 1971 ft 127 kts 120°
2026-04-25 10:13 49.53041 1.93439 1971 ft 126 kts 123°
2026-04-25 10:14 49.52550 1.94510 1981 ft 120 kts 122°
2026-04-25 10:14 49.52089 1.95552 1984 ft 114 kts 120°
2026-04-25 10:14 49.51680 1.96564 1971 ft 106 kts 117°
2026-04-25 10:14 49.51308 1.97502 1964 ft 105 kts 118°
2026-04-25 10:15 49.50932 1.98478 2101 ft 104 kts 115°
2026-04-25 10:15 49.50560 1.99465 2034 ft 111 kts 124°
2026-04-25 10:15 49.50143 2.00332 1968 ft 99 kts 121°
2026-04-25 10:15 49.49742 2.01239 1978 ft 103 kts 122°
2026-04-25 10:16 49.49352 2.02083 1881 ft 94 kts 122°
2026-04-25 10:16 49.49012 2.02871 1745 ft 86 kts 118°
2026-04-25 10:16 49.48683 2.03649 1593 ft 88 kts 122°
2026-04-25 10:16 49.48357 2.04421 1502 ft 85 kts 120°
2026-04-25 10:17 49.48026 2.05176 1330 ft 85 kts 117°
2026-04-25 10:17 49.47704 2.05920 1180 ft 84 kts 120°
2026-04-25 10:17 49.47399 2.06668 1032 ft 82 kts 117°
2026-04-25 10:17 49.47088 2.07421 936 ft 84 kts 121°
2026-04-25 10:18 49.46774 2.08165 818 ft 82 kts 120°
2026-04-25 10:18 49.46464 2.08879 656 ft 79 kts 126°
2026-04-25 10:18 49.46157 2.09629 563 ft 85 kts 120°
2026-04-25 10:18 49.45831 2.10374 418 ft 83 kts 123°
2026-04-25 10:19 49.45534 2.11070 343 ft 71 kts 122°
2026-04-25 10:19 49.45256 2.11710 382 ft 89 kts 123°
2026-04-25 10:19 49.44850 2.12653 630 ft 116 kts 122°
2026-04-25 10:19 49.44425 2.13588 1412 ft 85 kts 126°
2026-04-25 10:20 49.43936 2.14374 1689 ft 118 kts 133°
2026-04-25 10:20 49.43327 2.15339 1951 ft 137 kts 131°
2026-04-25 10:20 49.42769 2.16573 2019 ft 144 kts 104°
2026-04-25 10:20 49.42929 2.18063 2119 ft 147 kts 62°
2026-04-25 10:21 49.43654 2.19214 2095 ft 151 kts 41°
2026-04-25 10:21 49.44506 2.20198 2026 ft 154 kts 38°
2026-04-25 10:21 49.45323 2.21211 1975 ft 143 kts 50°
2026-04-25 10:21 49.45817 2.22453 1922 ft 133 kts 58°
2026-04-25 10:22 49.46245 2.23694 1913 ft 128 kts 74°
2026-04-25 10:22 49.46235 2.24574 1999 ft 125 kts 101°
2026-04-25 10:22 49.45435 2.25890 2000 ft 132 kts 152°